Location: Ahausen
(50.4985°N, 8.2722°E)
Time: 03:08:29
(UTC+00:00)

SPOT 1/Viking Rocket - Pass Details

Date: 18 September 2020
Orbit: 777 x 794 km, 98.5° (Epoch: 22 October)

Event Time Altitude Azimuth Distance (km) Brightness Sun altitude
Exits shadow 19:33:45 29° 81° (E) 1,404 4.4 -19.2°
Maximum altitude 19:34:37 31° 62° (ENE) 1,356 4.5 -19.3°
Drops below altitude 10° 19:39:07 10° 2° (N) 2,352 6.3 -20.0°
Sets 19:41:39 0° 352° (N) 3,282 7.3 -20.3°
